This is the latest recevied weather packets stored in our database for station/object N1HQ. If no packets are shown the sender has not sent any weather packets the latest 1 day(s).
| Time | Temp. | Humidity | Pressure | Rain* | Wind** | Luminosity | Snow |
|---|---|---|---|---|---|---|---|
| 1778025883 | 23.33° C | 89% | 1012.2 hPa | 0 mm | 0.89 m/s, 157° | - | - |
| 1778025618 | 23.33° C | 89% | 1012.1 hPa | 0 mm | 0.89 m/s, 164° | - | - |
| 1778025328 | 23.89° C | 88% | 1012.3 hPa | 0 mm | 1.34 m/s, 160° | - | - |
| 1778025063 | 23.89° C | 88% | 1012.4 hPa | 0 mm | 1.34 m/s, 148° | - | - |
| 1778024778 | 23.89° C | 87% | 1012.4 hPa | 0 mm | 1.34 m/s, 229° | - | - |
| 1778024528 | 23.89° C | 87% | 1012.4 hPa | 0 mm | 1.34 m/s, 132° | - | - |
| 1778024263 | 23.89° C | 86% | 1012.4 hPa | 0 mm | 1.34 m/s, 155° | - | - |
| 1778023988 | 24.44° C | 86% | 1012.6 hPa | 0 mm | 1.34 m/s, 144° | - | - |
| 1778023703 | 24.44° C | 85% | 1012.6 hPa | 0 mm | 1.34 m/s, 126° | - | - |
| 1778023408 | 24.44° C | 83% | 1012.5 hPa | 0 mm | 1.34 m/s, 141° | - | - |
| 1778023113 | 25° C | 83% | 1012.3 hPa | 0 mm | 1.79 m/s, 133° | - | - |
| 1778022854 | 24.44° C | 82% | 1012.3 hPa | 0 mm | 2.24 m/s, 136° | - | - |
| 1778022613 | 25° C | 81% | 1012.3 hPa | 0 mm | 2.24 m/s, 162° | - | - |
| 1778022366 | 25° C | 82% | 1012.3 hPa | 0 mm | 1.79 m/s, 135° | - | - |
| 1778022098 | 25° C | 81% | 1012.4 hPa | 0 mm | 1.79 m/s, 154° | - | - |
| 1778021848 | 25° C | 80% | 1012.3 hPa | 0 mm | 1.34 m/s, 143° | - | - |
| 1778021595 | 25° C | 79% | 1012.3 hPa | 0 mm | 1.34 m/s, 256° | - | - |
| 1778021322 | 25.56° C | 79% | 1012.4 hPa | 0 mm | 1.34 m/s, 142° | - | - |
| 1778021068 | 25.56° C | 78% | 1012.4 hPa | 0 mm | 1.79 m/s, 140° | - | - |
| 1778020786 | 25.56° C | 76% | 1012.5 hPa | 0 mm | 1.34 m/s, 158° | - | - |
| 1778020518 | 25.56° C | 76% | 1012.6 hPa | 0 mm | 1.79 m/s, 150° | - | - |
| 1778020233 | 25.56° C | 77% | 1012.5 hPa | 0 mm | 2.24 m/s, 148° | - | - |
| 1778019987 | 25.56° C | 78% | 1012.5 hPa | 0 mm | 2.24 m/s, 121° | - | - |
| 1778019693 | 26.11° C | 74% | 1012.5 hPa | 0 mm | 2.24 m/s, 148° | - | - |
| 1778019415 | 26.11° C | 72% | 1012.5 hPa | 0 mm | 2.24 m/s, 163° | - | - |
* Rain latest hour (hover to see other rain measurements)
** Current wind speed in m/s (hover to see current wind gust speed)